Powrót do katalogu

STARLINK-33876

AktywnyŁącznośćVLEO
NORAD 63639·PAYLOAD·🇺🇸 United States

Wystrzelony Apr 25, 2025 z Cape Canaveral Space Force Station

Loading…

Następne Przeloty (najbliższe 24 godziny)

TLE

ŚwieżeSource: CelesTrak SupGP

Epoka: Sep 15, 2026, 02:41 UTC

1 63639C 25083F   26258.11229167  .00006108  00000+0  22118-3 0  2586
2 63639  43.0028  15.4671 0001538 264.0265 191.2957 15.27581608    10

Śledź STARLINK-33876 w czasie rzeczywistym z AllMySat

Download on the App Store